Tel Aviv, Israel

2:42 PM IST on December 13, 2017 (GMT +0200)
Ben Gurion

Weather History for LLBG - March, 2017

Change the Weather History Date:

Monday, March 20, 2017

  Actual Average Record
Temperature  
Mean Temperature 59 °F -  
Max Temperature 66 °F 71 °F 86 °F (2001)
Min Temperature 52 °F 54 °F 44 °F (1997)
Degree Days  
Heating Degree Days 6    
Growing Degree Days 9 (Base 50)    
Moisture  
Dew Point 48 °F    
Average Humidity 68    
Maximum Humidity 88    
Minimum Humidity 48    
Precipitation  
Precipitation 0.00 in - - ()
Sea Level Pressure  
Sea Level Pressure 30.03 in    
Wind  
Wind Speed 7 mph ()    
Max Wind Speed 16 mph    
Max Gust Speed 22 mph    
Visibility 6.2 miles    
Events      
Averages and records for this station are not official NWS values.
T = Trace of Precipitation, MM = Missing Value Source: Averaged Metar Reports

Daily Weather History Graph

Daily Weather History Graph

Search for Another Location

Airport or City:

Trip Planner

Search our weather history database for the weather conditions in past years. The results will help you decide how hot, cold, wet, or windy it might be!

Date:

Astronomy

Mar. 20, 2017 Rise Set
Actual Time 5:44 AM IST 5:51 PM IST
Civil Twilight 5:19 AM IST 6:16 PM IST
Nautical Twilight 4:51 AM IST 6:44 PM IST
Astronomical Twilight 4:22 AM IST 7:13 PM IST
Moon 12:00 AM IST (3/20) 10:44 AM IST (3/20)
Length of Visible Light 12h 56m
Length of Day
12h 07m
Waning Gibbous, 52% of the Moon is Illuminated
Mar 20
Waning Gibbous
Mar 20
Last Quarter
Mar 28
New
Apr 3
First Quarter
Apr 11
Full

Hourly Weather History & Observations

Time (IST) Temp. Dew Point Humidity Pressure Visibility Wind Dir Wind Speed Gust Speed Precip Events Conditions
12:20 AM 55.4 °F 42.8 °F 63% 30.01 in 6.2 mi SSW 4.6 mph - N/A   Partly Cloudy
12:50 AM 55.4 °F 42.8 °F 63% 30.01 in 6.2 mi South 4.6 mph - N/A   Partly Cloudy
1:20 AM 53.6 °F 42.8 °F 67% 30.01 in 6.2 mi SSW 4.6 mph - N/A   Partly Cloudy
1:50 AM 53.6 °F 42.8 °F 67% 30.01 in 6.2 mi SSE 5.8 mph - N/A   Partly Cloudy
2:00 AM 54 °F 43 °F 57% 30.01 in 6 mi SSE 5.8 mph - -   Scattered Clouds
2:20 AM 53.6 °F 42.8 °F 67% 30.01 in 6.2 mi SSE 6.9 mph - N/A   Partly Cloudy
2:50 AM 53.6 °F 42.8 °F 67% 30.01 in 6.2 mi South 5.8 mph - N/A   Scattered Clouds
3:20 AM 53.6 °F 42.8 °F 67% 30.01 in 6.2 mi SSE 4.6 mph - N/A   Mostly Cloudy
3:50 AM 51.8 °F 42.8 °F 71% 30.01 in 6.2 mi SSE 5.8 mph - N/A   Scattered Clouds
4:20 AM 51.8 °F 42.8 °F 71% 30.01 in 6.2 mi South 5.8 mph - N/A   Scattered Clouds
4:50 AM 53.6 °F 42.8 °F 67% 30.01 in 6.2 mi South 6.9 mph - N/A   Scattered Clouds
5:00 AM 53 °F 43 °F 60% 30.02 in 6 mi South 6.9 mph - -   Partly Cloudy
5:20 AM 51.8 °F 42.8 °F 71% 30.01 in 6.2 mi SSE 5.8 mph - N/A   Partly Cloudy
5:50 AM 51.8 °F 44.6 °F 76% 30.01 in 6.2 mi SSE 6.9 mph - N/A   Scattered Clouds
6:20 AM 51.8 °F 44.6 °F 76% 30.01 in 6.2 mi SSE 8.1 mph - N/A   Scattered Clouds
6:50 AM 53.6 °F 44.6 °F 72% 30.04 in 6.2 mi South 5.8 mph - N/A   Scattered Clouds
7:20 AM 55.4 °F 46.4 °F 72% 30.04 in 6.2 mi South 8.1 mph - N/A   Mostly Cloudy
7:50 AM 55.4 °F 46.4 °F 72% 30.04 in 6.2 mi South 8.1 mph - N/A   Mostly Cloudy
8:00 AM 56 °F 46 °F 59% 30.06 in 6 mi South 8.1 mph - -   Mostly Cloudy
8:20 AM 57.2 °F 46.4 °F 67% 30.06 in 6.2 mi South 8.1 mph - N/A   Mostly Cloudy
8:50 AM 59.0 °F 48.2 °F 67% 30.04 in 6.2 mi South 8.1 mph - N/A   Scattered Clouds
9:20 AM 62.6 °F 50.0 °F 63% 30.06 in 6.2 mi SSW 10.4 mph - N/A   Scattered Clouds
9:50 AM 62.6 °F 51.8 °F 68% 30.06 in 6.2 mi SSW 8.1 mph - N/A   Scattered Clouds
10:20 AM 64.4 °F 51.8 °F 64% 30.06 in 6.2 mi South 9.2 mph - N/A   Scattered Clouds
10:50 AM 62.6 °F 51.8 °F 68% 30.04 in 6.2 mi SW 9.2 mph - N/A   Scattered Clouds
11:00 AM 63 °F 51 °F 57% 30.06 in 6 mi SW 11.5 mph - -   Mostly Cloudy
11:20 AM 64.4 °F 51.8 °F 64% 30.04 in 6.2 mi WSW 13.8 mph - N/A   Scattered Clouds
11:50 AM 64.4 °F 51.8 °F 64% 30.04 in 6.2 mi SW 11.5 mph - N/A   Mostly Cloudy
12:20 PM 64.4 °F 51.8 °F 64% 30.04 in 6.2 mi SW 9.2 mph 21.9 mph N/A   Mostly Cloudy
12:50 PM 64.4 °F 51.8 °F 64% 30.04 in 6.2 mi WSW 13.8 mph - N/A   Mostly Cloudy
1:20 PM 64.4 °F 51.8 °F 64% 30.04 in 6.2 mi WSW 13.8 mph - N/A   Mostly Cloudy
1:50 PM 66.2 °F 50.0 °F 56% 30.04 in 6.2 mi WSW 11.5 mph - N/A   Mostly Cloudy
2:00 PM 66 °F 51 °F 48% 30.04 in 6 mi WSW 12.7 mph - -   Mostly Cloudy
2:20 PM 64.4 °F 50.0 °F 59% 30.04 in 6.2 mi West 16.1 mph - N/A   Scattered Clouds
2:50 PM 64.4 °F 50.0 °F 59% 30.04 in 6.2 mi West 13.8 mph - N/A   Scattered Clouds
3:20 PM 64.4 °F 50.0 °F 59% 30.04 in 6.2 mi WSW 13.8 mph - N/A   Scattered Clouds
3:50 PM 64.4 °F 51.8 °F 64% 30.04 in 6.2 mi WSW 11.5 mph - N/A   Scattered Clouds
4:20 PM 62.6 °F 50.0 °F 63% 30.04 in 6.2 mi WSW 9.2 mph - N/A   Scattered Clouds
4:50 PM 62.6 °F 50.0 °F 63% 30.04 in 6.2 mi WSW 9.2 mph - N/A   Scattered Clouds
5:00 PM 63 °F 51 °F 56% 30.04 in 6 mi WSW 10.4 mph - -   Mostly Cloudy
5:20 PM 62.6 °F 51.8 °F 68% 30.04 in 6.2 mi WSW 8.1 mph - N/A   Partly Cloudy
5:50 PM 60.8 °F 51.8 °F 72% 30.04 in 6.2 mi WSW 8.1 mph - N/A   Partly Cloudy
6:20 PM 60.8 °F 51.8 °F 72% 30.04 in 6.2 mi WSW 5.8 mph - N/A   Partly Cloudy
6:50 PM 60.8 °F 51.8 °F 72% 30.04 in 6.2 mi SW 4.6 mph - N/A   Partly Cloudy
7:20 PM 59.0 °F 51.8 °F 77% 30.04 in 6.2 mi Variable 2.3 mph - N/A   Partly Cloudy
7:50 PM 59.0 °F 51.8 °F 77% 30.04 in 6.2 mi Variable 3.5 mph - N/A   Scattered Clouds
8:00 PM 60 °F 52 °F 69% 30.05 in 6 mi 3.5 mph - -   Mostly Cloudy
8:20 PM 59.0 °F 53.6 °F 82% 30.04 in 6.2 mi Variable 3.5 mph - N/A   Scattered Clouds
8:50 PM 59.0 °F 51.8 °F 77% 30.04 in 6.2 mi SSE 4.6 mph - N/A   Partly Cloudy
9:20 PM 57.2 °F 50.0 °F 77% 30.04 in 6.2 mi SSE 5.8 mph - N/A   Partly Cloudy
9:50 PM 57.2 °F 50.0 °F 77% 30.04 in 6.2 mi SSE 6.9 mph - N/A   Partly Cloudy
10:20 PM 57.2 °F 50.0 °F 77% 30.04 in 6.2 mi SE 6.9 mph - N/A   Scattered Clouds
10:50 PM 57.2 °F 50.0 °F 77% 30.04 in 6.2 mi SE 6.9 mph - N/A   Scattered Clouds
11:00 PM 57 °F 50 °F 72% 30.04 in 6 mi SE 6.9 mph - -   Partly Cloudy
11:20 PM 57.2 °F 50.0 °F 77% 30.04 in 6.2 mi SE 5.8 mph - N/A   Scattered Clouds
11:50 PM 53.6 °F 50.0 °F 88% 30.04 in 6.2 mi Variable 2.3 mph - N/A   Scattered Clouds